Temp
-14 -13 -13 -13 -13 -13 -13 -13 -13 -13 -13 -13 -14 -13 -13 -13 -13 -13 -13 -13 -14 -14 -14 -13 -13 -13 -13 -13 -13 -13 -13 -14 -14 -14 -14 -14 -14 -14 -14 -13 -13 -13 -14 -13 -13
-13 -13 -13 -13 -13 -13 -13 -14 -14 -14 -14 -14 -14 -14 -13 -13 -13 -14 -14 -14 -14 -14 -14 -14 -14 -14 -13 -13 -13 -14 -14 -14 -14 -14 -14 -15 -14 -15 -14 -14 -14 -14 -14 -14 -14
-14 -14 -14 -14 -13 -13 -14 -14 -14 -14 -14 -14 -14 -14 -14 -14 -14 -14 -14 -14 -14 -14 -14 -14 -14 -14 -14 -14 -14 -14 -14 -14 -14 -14 -14 -15 -15 -14 -15 -15 -15 -15 -14 -14 -14
-14 -14 -14 -14 -14 -14 -14 -14 -14 -14 -14 -14 -14 -14 -14 -14 -14 -14 -14 -14 -14 -14 -14 -15 -14 -14 -15 -14 -14 -14 -14 -15 -15 -15 -15 -15 -15 -14 -15 -15 -15 -15 -15 -15 -15
-14 -14 -14 -14 -14 -14 -14 -14 -14 -14 -14 -14 -14 -14 -14 -14 -14 -14 -14 -15 -15 -15 -15 -15 -15 -15 -15 -15 -15 -15 -15 -15 -15 -15 -15 -15 -16 -15 -15 -15 -15 -15 -15 -15 -15
-14 -14 -14 -14 -14 -14 -14 -14 -14 -14 -14 -14 -14 -14 -14 -14 -14 -14 -15 -15 -15 -15 -15 -15 -15 -15 -16 -16 -16 -16 -16 -16 -16 -16 -16 -16 -16 -16 -16 -15 -15 -15 -15 -15 -15
-14 -14 -14 -14 -14 -14 -14 -14 -14 -14 -14 -14 -14 -14 -14 -14 -15 -15 -15 -15 -15 -16 -16 -16 -15 -16 -16 -16 -16 -16 -16 -17 -16 -17 -17 -16 -16 -16 -16 -16 -16 -16 -15 -15 -15
-14 -14 -14 -14 -14 -14 -14 -14 -14 -14 -14 -14 -14 -15 -15 -15 -15 -15 -15 -15 -16 -16 -16 -16 -16 -16 -16 -17 -17 -17 -17 -17 -17 -17 -18 -18 -17 -17 -17 -17 -17 -17 -16 -16 -15
-14 -14 -14 -14 -14 -14 -14 -14 -14 -14 -14 -15 -15 -15 -15 -15 -15 -16 -16 -16 -16 -16 -16 -16 -16 -16 -16 -17 -17 -17 -18 -18 -18 -18 -18 -18 -18 -18 -18 -18 -18 -18 -18 -17 -16
-14 -14 -14 -14 -14 -14 -14 -14 -14 -15 -15 -15 -15 -15 -16 -16 -16 -16 -16 -16 -16 -16 -17 -17 -17 -17 -17 -17 -17 -17 -18 -18 -18 -19 -19 -19 -19 -19 -18 -18 -18 -18 -18 -18 -18
-14 -14 -14 -14 -14 -14 -14 -14 -14 -15 -15 -15 -15 -16 -16 -16 -16 -16 -16 -16 -17 -17 -17 -17 -17 -17 -18 -18 -18 -18 -18 -18 -18 -19 -19 -20 -20 -20 -20 -19 -19 -19 -19 -19 -19
-14 -14 -14 -14 -14 -14 -14 -15 -15 -15 -15 -15 -16 -16 -16 -17 -16 -17 -16 -16 -17 -17 -17 -17 -17 -18 -18 -19 -20 -20 -20 -21 -20 -21 -22 -21 -22 -21 -22 -21 -20 -20 -20 -19 -19
-14 -14 -14 -14 -14 -14 -14 -15 -15 -15 -15 -16 -16 -16 -16 -16 -16 -16 -16 -16 -17 -17 -17 -17 -18 -18 -19 -20 -20 -21 -21 -22 -22 -23 -23 -24 -24 -24 -23 -23 -22 -21 -21 -20 -20
-14 -14 -14 -14 -14 -14 -15 -15 -15 -15 -16 -16 -16 -16 -16 -16 -16 -16 -16 -17 -17 -17 -17 -18 -18 -19 -20 -21 -21 -22 -24 -25 -26 -26 -26 -26 -26 -27 -26 -25 -24 -23 -22 -22 -21
-14 -14 -14 -14 -14 -14 -15 -15 -15 -16 -16 -16 -16 -16 -16 -17 -17 -17 -17 -17 -17 -17 -18 -18 -19 -20 -21 -22 -23 -26 -28 -29 -29 -29 -30 -30 -30 -31 -30 -28 -26 -25 -24 -23 -22
-14 -14 -14 -14 -14 -14 -15 -15 -16 -16 -16 -16 -16 -16 -16 -16 -16 -17 -17 -17 -17 -18 -18 -19 -19 -21 -22 -24 -27 -28 -30 -30 -30 -30 -30 -30 -32 -31 -31 -30 -29 -27 -26 -25 -24
-14 -14 -14 -14 -14 -14 -15 -15 -16 -16 -16 -16 -16 -16 -16 -16 -16 -16 -16 -17 -17 -17 -18 -19 -20 -22 -23 -25 -28 -29 -30 -30 -30 -30 -30 -30 -31 -31 -30 -30 -29 -28 -28 -27 -26
-14 -14 -14 -14 -14 -15 -15 -15 -16 -16 -16 -16 -16 -16 -16 -16 -16 -16 -17 -17 -17 -18 -19 -20 -22 -23 -27 -28 -30 -31 -31 -31 -30 -30 -30 -30 -30 -31 -30 -30 -29 -28 -28 -28 -27
-14 -14 -14 -14 -15 -15 -15 -16 -16 -16 -16 -16 -16 -16 -17 -17 -17 -17 -17 -17 -18 -18 -20 -21 -23 -25 -28 -30 -31 -31 -32 -32 -31 -31 -30 -30 -30 -31 -30 -30 -30 -29 -29 -28 -28
-14 -14 -14 -14 -15 -15 -15 -15 -16 -16 -16 -16 -16 -17 -17 -17 -17 -17 -17 -18 -19 -19 -21 -22 -24 -26 -28 -29 -32 -32 -32 -32 -31 -31 -31 -31 -31 -31 -31 -30 -30 -30 -30 -29 -28
-14 -14 -14 -14 -14 -15 -15 -15 -16 -16 -16 -16 -16 -17 -17 -17 -17 -18 -18 -18 -19 -20 -21 -23 -25 -27 -28 -29 -31 -31 -32 -32 -32 -32 -32 -32 -32 -31 -31 -31 -30 -30 -30 -29 -29
-14 -14 -14 -14 -14 -15 -15 -15 -16 -16 -16 -16 -16 -17 -17 -17 -18 -18 -18 -19 -20 -21 -21 -23 -25 -27 -28 -30 -31 -32 -33 -33 -33 -33 -32 -32 -32 -32 -32 -31 -31 -30 -30 -30 -29
-14 -14 -14 -14 -15 -15 -15 -15 -16 -16 -16 -16 -16 -17 -17 -17 -18 -18 -19 -19 -20 -21 -22 -23 -24 -26 -27 -29 -31 -32 -32 -33 -33 -34 -34 -33 -33 -32 -32 -32 -31 -30 -30 -30 -30
-14 -14 -14 -15 -15 -15 -15 -15 -16 -16 -16 -16 -16 -17 -17 -18 -18 -19 -19 -20 -20 -21 -22 -23 -24 -27 -27 -29 -30 -31 -32 -33 -34 -33 -33 -33 -33 -33 -33 -32 -31 -31 -30 -29 -29
-14 -14 -14 -14 -15 -15 -15 -15 -16 -16 -16 -16 -16 -17 -17 -18 -18 -19 -19 -20 -21 -21 -22 -23 -24 -26 -27 -29 -30 -31 -32 -33 -33 -34 -33 -33 -33 -34 -34 -33 -32 -31 -31 -30 -30
-14 -14 -14 -15 -15 -15 -15 -15 -15 -16 -16 -16 -16 -17 -17 -18 -18 -19 -19 -20 -21 -21 -22 -23 -24 -26 -27 -28 -30 -31 -33 -33 -33 -34 -34 -33 -34 -34 -34 -34 -34 -33 -31 -31 -30
-14 -14 -14 -15 -15 -15 -15 -15 -15 -16 -16 -16 -17 -17 -17 -18 -18 -19 -19 -20 -20 -21 -22 -23 -23 -25 -27 -28 -29 -31 -33 -33 -33 -34 -34 -34 -34 -34 -34 -34 -34 -34 -32 -31 -30
Height
5777 5777 5777 5777 5777 5778 5778 5778 5778 5779 5778 5778 5778 5778 5778 5778 5778 5778 5777 5775 5773 5772 5771 5769 5767 5766 5765 5765 5763 5762 5763 5762 5763 5765 5765 5763 5763 5762 5762 5766 5767 5768 5772 5772 5769
5778 5777 5777 5777 5777 5777 5777 5777 5778 5778 5778 5778 5777 5777 5777 5777 5775 5774 5773 5771 5770 5769 5767 5766 5764 5762 5760 5759 5758 5757 5757 5757 5757 5757 5758 5755 5757 5755 5756 5760 5760 5761 5763 5765 5766
5779 5779 5778 5778 5777 5777 5777 5778 5778 5778 5777 5777 5776 5775 5774 5773 5773 5771 5770 5768 5767 5765 5763 5762 5760 5759 5757 5754 5753 5751 5750 5749 5749 5750 5749 5745 5749 5747 5748 5751 5754 5754 5754 5757 5760
5780 5780 5779 5779 5778 5778 5778 5778 5778 5777 5776 5776 5774 5774 5772 5771 5772 5769 5767 5765 5764 5762 5760 5758 5756 5754 5752 5749 5747 5746 5745 5743 5742 5740 5739 5737 5740 5738 5739 5741 5743 5745 5745 5746 5750
5782 5781 5780 5780 5779 5779 5779 5778 5778 5777 5775 5774 5773 5772 5771 5769 5768 5765 5764 5762 5759 5757 5755 5752 5750 5748 5746 5744 5741 5739 5738 5736 5734 5730 5729 5729 5730 5730 5731 5732 5734 5735 5736 5736 5736
5782 5782 5782 5781 5781 5780 5779 5778 5777 5776 5774 5773 5772 5770 5767 5767 5765 5761 5759 5757 5754 5751 5749 5746 5743 5741 5740 5737 5734 5732 5731 5728 5725 5719 5718 5718 5717 5718 5721 5720 5721 5726 5727 5728 5727
5784 5784 5783 5782 5781 5780 5779 5778 5776 5775 5773 5771 5769 5767 5764 5763 5760 5756 5754 5752 5748 5744 5742 5739 5737 5736 5733 5730 5726 5724 5722 5719 5716 5710 5706 5707 5706 5704 5706 5709 5709 5710 5713 5716 5718
5785 5784 5783 5782 5781 5780 5779 5777 5775 5773 5770 5768 5766 5764 5761 5758 5756 5752 5748 5745 5745 5741 5736 5733 5730 5727 5724 5721 5716 5713 5711 5709 5705 5700 5695 5694 5693 5692 5691 5692 5696 5697 5699 5702 5704
5786 5785 5784 5782 5781 5779 5777 5775 5773 5770 5767 5765 5763 5760 5759 5754 5752 5750 5746 5741 5738 5736 5731 5727 5722 5718 5714 5709 5704 5699 5696 5693 5690 5685 5683 5681 5678 5677 5677 5677 5679 5682 5686 5688 5691
5787 5786 5784 5782 5780 5778 5775 5773 5770 5767 5763 5761 5760 5759 5756 5752 5748 5745 5742 5738 5734 5729 5723 5718 5713 5707 5702 5697 5691 5686 5682 5679 5673 5667 5663 5660 5659 5659 5659 5660 5662 5666 5669 5674 5677
5787 5785 5783 5780 5778 5776 5773 5770 5768 5766 5762 5758 5756 5755 5753 5750 5747 5742 5738 5734 5729 5724 5719 5714 5708 5700 5693 5686 5678 5670 5663 5659 5656 5645 5638 5638 5636 5637 5638 5641 5643 5646 5651 5656 5662
5786 5784 5782 5779 5776 5773 5770 5766 5763 5762 5759 5755 5753 5753 5752 5748 5743 5739 5735 5731 5725 5719 5711 5704 5696 5688 5680 5671 5662 5652 5642 5634 5631 5625 5615 5608 5605 5610 5615 5619 5623 5626 5631 5637 5643
5785 5783 5780 5777 5774 5771 5768 5764 5761 5758 5757 5755 5753 5751 5750 5747 5741 5737 5731 5724 5717 5709 5701 5692 5683 5673 5662 5654 5647 5634 5618 5607 5596 5593 5592 5587 5582 5582 5587 5592 5599 5605 5611 5617 5625
5785 5782 5779 5776 5773 5768 5766 5763 5759 5757 5756 5756 5753 5751 5747 5742 5738 5731 5724 5719 5710 5702 5692 5683 5673 5663 5650 5635 5622 5609 5589 5573 5566 5554 5552 5556 5556 5556 5561 5566 5575 5585 5592 5598 5605
5784 5781 5778 5774 5770 5767 5764 5761 5758 5757 5756 5756 5752 5748 5745 5741 5735 5728 5721 5712 5705 5697 5688 5677 5664 5651 5635 5612 5590 5576 5564 5556 5550 5544 5533 5537 5533 5533 5542 5547 5555 5565 5573 5580 5586
5782 5779 5776 5773 5769 5766 5762 5760 5758 5758 5754 5753 5750 5746 5741 5737 5732 5727 5718 5709 5700 5690 5678 5665 5650 5635 5619 5601 5578 5565 5556 5550 5547 5539 5532 5528 5528 5528 5531 5535 5541 5549 5555 5562 5568
5780 5777 5774 5771 5768 5764 5761 5759 5759 5756 5755 5753 5749 5746 5741 5735 5729 5722 5714 5705 5695 5684 5670 5654 5639 5621 5603 5590 5580 5563 5554 5547 5544 5538 5533 5528 5528 5529 5527 5531 5536 5539 5544 5547 5552
5779 5776 5773 5769 5767 5764 5761 5759 5757 5756 5754 5752 5748 5744 5739 5732 5725 5717 5709 5699 5688 5675 5661 5645 5626 5610 5587 5572 5561 5557 5552 5549 5543 5538 5536 5533 5530 5529 5529 5530 5531 5533 5535 5537 5540
5777 5775 5772 5770 5767 5763 5762 5759 5757 5755 5753 5751 5747 5743 5737 5730 5722 5712 5703 5692 5680 5667 5653 5636 5622 5600 5580 5571 5560 5557 5553 5550 5545 5540 5535 5532 5530 5530 5528 5528 5527 5527 5528 5528 5530
5776 5774 5771 5769 5766 5764 5762 5760 5758 5756 5753 5750 5746 5741 5734 5726 5717 5708 5697 5686 5673 5659 5644 5628 5613 5594 5581 5570 5562 5555 5550 5546 5543 5539 5535 5533 5531 5529 5527 5526 5525 5524 5524 5524 5524
5776 5773 5771 5769 5767 5764 5762 5761 5758 5755 5753 5749 5744 5738 5731 5723 5713 5704 5693 5681 5667 5653 5637 5621 5606 5591 5575 5564 5556 5553 5547 5543 5540 5538 5535 5532 5530 5527 5524 5522 5520 5520 5520 5519 5519
5775 5773 5771 5769 5768 5765 5763 5760 5758 5755 5751 5747 5741 5735 5727 5718 5710 5700 5688 5675 5662 5648 5632 5616 5597 5582 5573 5560 5554 5548 5545 5541 5537 5535 5532 5529 5527 5523 5521 5519 5517 5516 5515 5514 5514
5774 5773 5771 5770 5768 5766 5763 5760 5758 5754 5750 5745 5739 5732 5724 5715 5705 5695 5684 5672 5658 5644 5628 5611 5596 5584 5574 5564 5554 5549 5543 5538 5535 5532 5529 5527 5524 5519 5516 5514 5513 5512 5512 5510 5510
5775 5773 5772 5770 5768 5766 5763 5760 5757 5753 5748 5743 5736 5729 5720 5712 5702 5692 5680 5669 5655 5641 5626 5611 5595 5581 5570 5560 5552 5546 5540 5536 5533 5530 5526 5523 5520 5515 5510 5507 5507 5507 5507 5507 5505
5774 5773 5772 5770 5768 5765 5763 5760 5756 5752 5747 5740 5734 5726 5718 5709 5699 5689 5678 5665 5653 5639 5625 5612 5598 5583 5571 5560 5550 5543 5537 5533 5529 5527 5524 5521 5516 5510 5504 5498 5498 5499 5499 5499 5499
5774 5773 5771 5769 5767 5765 5762 5758 5755 5750 5745 5738 5732 5724 5715 5706 5696 5685 5675 5663 5651 5638 5624 5611 5597 5582 5570 5558 5547 5540 5533 5529 5525 5523 5520 5517 5513 5508 5502 5495 5491 5489 5491 5492 5493
5773 5772 5771 5768 5766 5764 5760 5757 5753 5748 5743 5735 5729 5721 5713 5704 5694 5683 5673 5662 5650 5637 5624 5610 5596 5581 5569 5559 5547 5537 5531 5526 5522 5519 5516 5513 5510 5505 5500 5494 5489 5485 5482 5484 5486
Wind_Speed
3 2 3 4 5 6 7 7 8 8 7 5 5 7 8 12 15 16 18 18 16 17 18 19 20 21 21 22 23 25 26 24 23 22 24 28 29 32 37 39 41 44 43 47 50
3 3 3 3 1 1 1 2 1 0 1 4 7 10 11 13 16 14 14 16 17 19 19 19 22 24 27 28 27 27 24 25 26 26 24 28 32 33 35 38 43 45 47 47 46
5 6 6 5 5 6 4 2 2 3 4 6 8 10 12 12 13 15 16 17 19 20 20 22 23 24 25 28 29 29 29 30 28 27 28 31 32 36 36 38 42 48 51 50 49
5 5 5 5 5 5 3 2 0 2 4 6 7 9 11 13 13 15 16 18 20 21 23 24 25 25 26 28 29 30 30 31 32 33 33 34 33 38 41 41 42 45 53 55 55
3 3 4 4 4 4 4 3 2 2 4 6 8 10 14 15 15 19 21 22 24 27 28 29 29 29 30 31 32 33 33 33 35 36 37 37 37 38 40 45 46 47 49 54 58
5 6 7 6 6 7 7 6 7 8 9 11 13 16 18 19 20 23 24 26 28 28 29 30 31 32 31 32 34 35 36 37 38 41 42 42 42 39 40 43 47 49 51 53 56
10 9 9 10 11 10 9 9 10 11 13 15 17 19 22 23 22 25 26 25 27 30 30 31 32 31 31 31 34 35 37 40 42 45 47 48 49 48 47 45 47 49 52 56 57
11 11 10 9 9 9 9 11 12 15 17 19 20 21 23 23 21 23 26 26 23 26 28 30 32 32 33 33 36 38 39 41 44 46 50 51 53 54 54 51 50 51 52 56 60
9 9 9 9 10 13 14 16 17 19 20 21 21 21 22 21 21 19 20 23 25 27 30 32 35 36 38 39 40 43 44 45 46 49 51 53 56 58 59 59 57 55 53 55 58
8 9 10 12 14 16 18 18 19 20 22 20 19 20 17 18 20 21 22 24 28 31 34 37 38 40 41 42 45 47 49 50 54 56 56 57 58 61 62 62 62 61 58 56 58
10 11 14 16 17 19 19 20 20 20 20 20 19 14 16 16 20 22 24 28 31 32 34 35 37 40 44 46 50 54 57 59 60 66 68 65 65 63 64 66 64 62 62 62 59
11 14 16 17 18 19 20 20 21 21 17 17 14 16 15 19 22 24 27 28 30 33 36 40 44 47 50 53 56 60 65 68 69 68 71 75 74 72 67 67 67 67 64 64 64
13 15 18 19 20 20 20 20 21 19 16 11 13 16 19 20 22 25 28 33 38 41 44 48 53 56 60 61 62 66 72 75 79 78 76 74 76 77 74 68 67 67 66 66 66
13 14 19 21 21 20 19 20 18 16 13 12 14 19 22 24 26 30 35 39 43 47 51 54 57 60 63 67 73 78 73 67 59 59 60 62 59 64 69 72 70 66 67 67 66
14 16 20 21 20 20 19 18 16 15 13 15 18 21 21 25 29 33 37 42 45 50 53 56 60 64 69 77 80 70 56 44 25 21 28 24 39 48 47 54 62 64 64 65 67
16 18 20 20 22 19 18 17 16 15 15 17 21 24 27 29 31 34 39 44 49 53 56 61 66 70 74 70 61 49 37 15 15 21 17 10 18 26 37 44 52 54 58 60 64
16 17 19 20 19 18 18 17 16 17 17 19 22 24 28 31 34 40 44 48 51 56 60 65 69 72 72 62 39 29 16 10 16 22 15 9 12 20 15 31 33 36 44 50 55
15 17 18 18 17 17 16 16 16 16 16 18 23 27 30 34 39 42 47 50 54 58 62 67 70 72 65 54 39 31 32 27 25 21 13 13 12 6 14 17 23 26 30 36 46
15 16 16 15 15 15 15 15 16 16 18 21 25 29 34 38 41 45 50 53 57 61 63 66 68 65 55 38 35 29 27 24 23 18 17 7 17 10 8 11 19 21 21 26 30
14 14 13 14 14 14 15 14 15 16 18 22 27 32 36 41 44 47 52 55 59 62 64 67 68 63 49 36 24 23 24 18 20 16 17 8 9 11 12 14 16 16 16 16 19
13 12 12 13 14 14 14 13 16 17 20 25 29 33 38 42 46 49 53 57 60 63 65 68 67 56 48 41 32 21 22 15 15 14 11 8 11 12 10 12 18 22 22 24 24
11 10 11 12 14 14 13 14 16 18 21 25 30 34 39 44 47 51 54 57 60 63 65 70 69 55 46 41 27 22 19 16 18 15 13 13 15 18 17 16 15 10 9 19 24
9 10 10 10 13 12 13 14 16 19 23 28 33 38 41 46 50 51 54 57 59 62 65 70 67 56 48 40 28 14 13 21 20 18 18 15 18 23 24 23 21 20 18 11 12
7 8 8 9 10 12 14 15 17 22 26 30 36 40 44 47 50 52 55 57 60 61 64 69 67 54 49 42 34 18 14 20 21 19 21 19 23 25 28 31 29 26 22 22 17
5 7 6 8 10 11 14 17 20 24 29 34 37 41 45 47 49 52 54 56 59 62 63 67 68 54 50 43 37 28 20 19 19 16 18 18 22 24 27 26 34 31 29 25 24
4 5 7 9 10 12 16 19 23 27 30 34 38 41 44 47 49 52 54 56 59 61 63 66 67 56 49 46 42 35 27 21 18 18 19 20 20 22 25 25 24 32 31 30 28
2 5 8 9 11 13 16 20 24 28 31 35 38 41 44 46 49 51 53 55 58 61 62 65 67 58 49 50 45 40 30 23 18 18 20 20 22 23 23 24 23 19 30 32 32
Wind_Direction
146 181 201 216 236 247 248 253 254 258 264 269 271 273 283 290 295 296 292 295 296 297 297 300 299 297 293 289 284 280 280 277 267 255 246 241 245 246 243 243 244 243 239 243 248
61 37 32 27 358 276 248 233 262 342 262 285 291 296 293 292 292 296 300 302 303 302 302 302 299 297 294 291 289 287 284 278 273 268 254 246 241 246 249 244 245 245 243 238 239
50 57 40 33 34 47 51 46 359 325 308 295 293 292 294 298 301 303 306 304 304 306 304 300 298 295 292 288 284 284 285 283 279 270 264 256 246 240 245 246 243 247 250 247 243
40 40 32 40 54 65 74 79 354 291 286 292 288 295 304 307 303 299 305 304 303 301 299 298 296 292 288 284 282 281 279 280 279 274 268 262 255 250 245 241 242 244 249 254 253
63 73 71 78 76 86 86 84 72 359 318 309 314 313 309 307 306 302 302 302 302 301 297 296 294 292 292 291 289 286 284 280 275 274 270 266 265 258 252 249 243 241 245 249 253
96 98 91 84 71 58 47 34 13 352 334 322 318 311 307 308 305 299 301 301 298 296 295 298 296 296 298 294 291 288 286 283 280 277 270 269 266 261 255 252 250 245 244 246 250
92 87 71 53 41 30 18 360 343 327 318 314 315 309 307 309 307 303 303 303 304 302 302 300 299 298 295 291 288 286 283 281 278 277 277 274 270 266 261 252 250 249 245 243 245
72 59 45 30 13 355 338 325 319 314 310 307 307 307 309 310 312 310 308 307 307 307 308 309 309 306 303 297 291 286 282 277 274 273 273 272 269 268 264 259 253 250 249 247 245
48 29 12 356 344 332 326 321 318 313 309 308 310 313 316 310 312 316 316 316 316 318 319 315 313 310 305 301 297 293 288 283 278 272 267 266 266 265 263 262 259 253 249 247 248
20 2 346 336 332 328 327 326 326 320 317 314 313 316 320 324 325 326 323 325 328 323 321 320 319 313 307 302 296 290 285 283 282 276 269 264 259 257 256 257 258 255 251 246 245
357 348 341 337 336 333 329 328 327 329 323 320 322 330 337 338 335 333 328 328 327 324 322 315 312 311 308 304 299 294 289 283 277 278 274 268 264 259 255 253 252 251 249 246 243
350 349 347 343 337 333 333 331 334 335 337 333 332 344 345 346 334 333 328 331 330 329 326 327 323 320 315 309 305 299 295 289 282 278 275 272 270 265 260 254 251 250 246 244 241
352 349 346 343 340 336 335 336 336 340 346 355 341 343 346 343 337 337 341 341 341 341 337 331 327 324 318 312 306 299 291 285 280 272 267 269 267 266 263 258 252 248 247 245 241
346 343 345 344 340 340 340 339 340 350 2 1 352 351 348 344 347 348 347 343 343 338 334 331 326 320 316 314 310 305 303 299 295 287 279 265 260 256 256 257 255 250 247 246 245
340 337 342 343 346 344 343 347 357 358 6 358 352 353 352 354 352 346 345 340 337 337 332 329 324 322 323 322 319 319 316 319 322 334 302 269 235 239 241 250 249 249 247 245 246
332 337 341 346 346 349 350 356 360 9 10 2 360 359 358 357 351 348 342 341 339 337 333 332 330 328 329 327 326 322 325 334 330 342 8 340 225 245 246 246 249 246 247 245 243
334 341 344 347 354 355 357 1 8 10 7 7 4 3 359 355 352 351 349 344 340 339 339 334 333 334 330 331 331 321 343 355 6 358 343 332 182 239 264 260 261 260 259 253 249
344 345 349 356 360 1 4 8 8 14 16 13 8 2 357 355 355 352 349 345 342 340 339 337 338 339 336 338 343 349 349 354 357 350 317 264 210 205 251 266 261 258 258 259 254
349 351 357 3 4 10 18 15 17 23 22 15 6 359 357 354 350 350 350 346 345 343 341 341 345 343 340 340 338 341 332 333 333 357 346 269 231 230 248 268 274 275 271 262 251
352 357 9 11 16 23 30 26 29 31 21 11 4 360 357 355 352 351 349 348 346 345 344 345 349 346 344 346 338 337 335 329 331 346 359 335 291 292 256 258 273 273 275 273 272
357 10 18 21 31 32 37 38 39 30 16 6 360 354 354 353 352 351 350 350 348 347 347 349 352 351 348 350 346 345 345 345 330 327 323 317 306 305 300 284 267 262 265 266 268
11 25 27 35 42 39 47 44 35 21 8 358 353 352 352 352 352 352 351 351 350 350 350 353 355 355 355 355 351 351 357 347 335 334 311 305 294 292 289 284 277 258 246 250 249
27 38 35 44 45 39 43 36 23 9 359 354 352 350 351 351 352 353 352 353 352 352 354 356 357 358 1 2 355 341 348 353 342 338 334 314 300 289 284 281 275 269 269 265 265
43 43 37 43 36 34 31 20 10 1 355 352 350 349 350 353 352 353 353 354 354 355 356 358 358 358 1 359 358 345 329 335 333 324 322 325 332 326 289 273 272 271 267 270 270
44 27 23 28 21 16 14 7 360 356 351 349 348 349 350 352 353 353 354 355 356 356 358 360 0 360 1 2 358 354 342 327 321 318 326 330 333 336 332 299 265 265 268 269 271
30 17 8 12 3 5 1 357 355 355 352 351 349 350 350 352 353 354 355 356 357 357 358 0 2 3 2 4 360 358 348 332 317 313 314 320 331 334 336 336 314 272 257 261 264
14 355 346 357 359 1 357 357 357 356 354 351 350 351 351 351 353 354 355 356 357 359 359 1 3 4 4 8 5 2 351 341 325 316 314 317 324 322 328 329 338 311 280 260 260